Regional Weather Roundup
Issued by NWS Goodland, KS

Home | Current Version | Previous Version | Text Only | Print | Product List | Glossary On
Versions: 1 2 3 4 5 6 7 8 9 10 11 12 13 14 15 16 17 18 19 20 21 22 23 24 25 26 27 28 29 30 31 32 33 34 35 36 37 38 39 40 41 42 43 44 45 46 47 48 49 50
000
ASUS43 KGLD 120608
RWRGLD

GOODLAND FORECAST AREA HOURLY WEATHER ROUNDUP
NATIONAL WEATHER SERVICE GOODLAND KS
1200 AM MDT SAT JUL 12 2014

...OFFICIAL OBSERVATIONS...

CITY           SKY/WX    TMP DP  RH WIND       PRES   REMARKS
GOODLAND KS    LGT RAIN  70  61  73 CALM      30.11S
HILL CITY KS   PTCLDY    80  58  46 S15G23    30.01S
IMPERIAL NEB   LGT RAIN  71  64  78 W7        30.04F
MCCOOK NEB     CLOUDY    78  60  53 SW8       30.02F
AKRON CO       LGT RAIN  65  62  90 MISG      30.16R
BURLINGTON CO  CLOUDY    67  61  81 N3        30.13S
LIMON CO       CLOUDY    68  58  70 CALM      30.20F
$$

...UNOFFICIAL OBSERVATIONS...

CITY           SKY/WX    TMP DP  RH WIND       PRES   REMARKS
COLBY KS       CLEAR     75  64  69 NW7       30.09S
GOVE KS          N/A     76  32  20 CALM        N/A
LENORA KS        N/A     79  32  18 MISG        N/A
NORTON KS      CLEAR     79  50  36 S12       30.01R
OBERLIN KS     FAIR      82  52  34 SW14      30.03S
SHARON SPRINGS   N/A     75  56  51 CALM        N/A
ST FRANCIS KS  CLOUDY    72  57  60 E3        30.07F
WAKEENEY KS      N/A     78  52  40 MISG        N/A
YUMA CO          N/A     67  63  87 CALM        N/A
$$


USA.gov is the U.S. government's official web portal to all federal, state and local government web resources and services.